sat.trackr.live / text

‹ back to catalog

STARLINK-31069

NORAD 58607 · 2023-200U

PAYLOAD ACTIVE UNKNOWN

§ Identity

Operator
Country
US
Launch date
2023-12-19
Launch site
AFETR
Launch vehicle
Mass (kg)
RCS (m²)

Purposes: comms

External: N2YO · Heavens-Above · Gunter

§ Orbital elements

Epoch: 2026-09-20T22:52:15.902976Z

Period
94.27 min
Inclination
43.0004°
Eccentricity
0.0001352
Mean motion
15.27579952 rev/d
Perigee alt
482.1 km
Apogee alt
484.0 km
Semi-major
6,861.2 km
B*
3.1221e-5
RAAN
146.1183°
Arg perigee
271.7277°
Mean anomaly
88.3419°
Rev number
15,347

§ Raw data

STARLINK-310691 58607U 23200U   26263.95296184  .00000597  00000+0  31221-4 0  99992 58607  43.0004 146.1183 0001352 271.7277  88.3419 15.27579952153472

JSON: /api/v1/satellites/58607 · /tle

For live sub-satellite position, see the globe view (requires WebGL).

§ Visibility from observer

Set your observer location to see the next 7 days of passes ≥ 10°. The values pass through the URL so the page stays shareable.

No JS? Fill the form by hand. The geolocation button needs JavaScript.